| time (UTC) | temp F | wind direction | speed knots | gust knots | rain 1hr in | rain 24hr in | rain mn in | humidity % | barometer mb |
| 20260905010631 | 75 | 267 | 4.3 | 9.6 | 0.00 | 0.00 | 0.00 | 63 | |
| 20260905010429 | 75 | 226 | 4.3 | 9.6 | 0.00 | 0.00 | 0.00 | 63 | |
| 20260905010025 | 75 | 250 | 5.2 | 8.7 | 0.00 | 0.00 | 0.00 | 62 | |
| 20260905005823 | 75 | 264 | 3.5 | 8.7 | 0.00 | 0.00 | 0.00 | 62 | |
| 20260905005623 | 75 | 240 | 3.5 | 9.6 | 0.00 | 0.00 | 0.00 | 62 | |
| 20260905005217 | 75 | 272 | 7.0 | 9.6 | 0.00 | 0.00 | 0.00 | 62 | |
| 20260905005015 | 75 | 281 | 3.5 | 9.6 | 0.00 | 0.00 | 0.00 | 62 | |
| 20260905004813 | 75 | 277 | 2.6 | 9.6 | 0.00 | 0.00 | 0.00 | 62 | |
| 20260905004613 | 75 | 274 | 6.1 | 12.2 | 0.00 | 0.00 | 0.00 | 62 | |
| 20260905004409 | 75 | 250 | 4.3 | 12.2 | 0.00 | 0.00 | 0.00 | 62 | |
| 20260905004207 | 76 | 265 | 8.7 | 7.0 | 0.00 | 0.00 | 0.00 | 61 | |
| 20260905003805 | 76 | 292 | 7.0 | 7.0 | 0.00 | 0.00 | 0.00 | 60 | |
| 20260905003601 | 76 | 189 | 0.9 | 9.6 | 0.00 | 0.00 | 0.00 | 60 | |
| 20260905003401 | 76 | 253 | 2.6 | 9.6 | 0.00 | 0.00 | 0.00 | 60 | |
| 20260905003158 | 76 | 284 | 4.3 | 13.0 | 0.00 | 0.00 | 0.00 | 61 | |
| 20260905002956 | 76 | 244 | 0.9 | 13.0 | 0.00 | 0.00 | 0.00 | 60 | |
| 20260905002754 | 76 | 226 | 2.6 | 13.0 | 0.00 | 0.00 | 0.00 | 60 | |
| 20260905002553 | 76 | 255 | 6.1 | 10.4 | 0.00 | 0.00 | 0.00 | 61 | |
| 20260905002350 | 76 | 264 | 7.0 | 10.4 | 0.00 | 0.00 | 0.00 | 60 | |
| 20260905002148 | 76 | 247 | 6.1 | 11.3 | 0.00 | 0.00 | 0.00 | 60 | |
| 20260905001948 | 76 | 268 | 5.2 | 11.3 | 0.00 | 0.00 | 0.00 | 60 | |
| 20260905001744 | 76 | 247 | 5.2 | 12.2 | 0.00 | 0.00 | 0.00 | 60 | |
| 20260905001542 | 76 | 296 | 3.5 | 12.2 | 0.00 | 0.00 | 0.00 | 61 | |
| 20260905001342 | 76 | 246 | 6.1 | 12.2 | 0.00 | 0.00 | 0.00 | 61 | |
| 20260905001138 | 76 | 270 | 7.0 | 11.3 | 0.00 | 0.00 | 0.00 | 60 | |
| 20260905000937 | 76 | 255 | 5.2 | 11.3 | 0.00 | 0.00 | 0.00 | 60 | |
| 20260905000735 | 76 | 270 | 9.6 | 12.2 | 0.00 | 0.00 | 0.00 | 59 | |
| 20260905000533 | 77 | 271 | 3.5 | 12.2 | 0.00 | 0.00 | 0.00 | 58 | |
| 20260905000332 | 77 | 254 | 4.3 | 12.2 | 0.00 | 0.00 | 0.00 | 59 | |
| 20260905000128 | 77 | 244 | 7.8 | 12.2 | 0.00 | 0.00 | 0.00 | 58 | |
| 20260904235927 | 77 | 272 | 6.1 | 12.2 | 0.00 | 0.00 | 0.00 | 59 | |
| 20260904235724 | 77 | 265 | 3.5 | 11.3 | 0.00 | 0.00 | 0.00 | 58 | |
| 20260904235524 | 77 | 258 | 10.4 | 11.3 | 0.00 | 0.00 | 0.00 | 56 | |
| 20260904235322 | 77 | 272 | 3.5 | 11.3 | 0.00 | 0.00 | 0.00 | 58 | |
| 20260904235118 | 77 | 250 | 11.3 | 9.6 | 0.00 | 0.00 | 0.00 | 57 | |
| 20260904234916 | 77 | 302 | 5.2 | 9.6 | 0.00 | 0.00 | 0.00 | 57 | |
| 20260904234514 | 78 | 250 | 8.7 | 11.3 | 0.00 | 0.00 | 0.00 | 57 | |
| 20260904234312 | 77 | 250 | 0.9 | 11.3 | 0.00 | 0.00 | 0.00 | 56 | |
| 20260904234110 | 77 | 261 | 6.1 | 11.3 | 0.00 | 0.00 | 0.00 | 57 | |
| 20260904233907 | 77 | 265 | 7.0 | 11.3 | 0.00 | 0.00 | 0.00 | 57 | |
| 20260904233505 | 77 | 225 | 7.0 | 9.6 | 0.00 | 0.00 | 0.00 | 56 | |
| 20260904233342 | 78 | 271 | 4.3 | 9.6 | 0.00 | 0.00 | 0.00 | 55 | |
| 20260904233302 | 78 | 271 | 4.3 | 9.6 | 0.00 | 0.00 | 0.00 | 55 | |
| 20260904233100 | 77 | 253 | 6.1 | 13.0 | 0.00 | 0.00 | 0.00 | 56 | |
| 20260904232858 | 77 | 161 | 0.9 | 13.0 | 0.00 | 0.00 | 0.00 | 56 | |
| 20260904232655 | 78 | 262 | 8.7 | 11.3 | 0.00 | 0.00 | 0.00 | 55 | |
| 20260904232454 | 78 | 275 | 3.5 | 11.3 | 0.00 | 0.00 | 0.00 | 54 | |
| 20260904232050 | 78 | 270 | 5.2 | 11.3 | 0.00 | 0.00 | 0.00 | 54 | |
| 20260904231847 | 78 | 260 | 7.0 | 11.3 | 0.00 | 0.00 | 0.00 | 51 | |
| 20260904231645 | 78 | 281 | 3.5 | 15.6 | 0.00 | 0.00 | 0.00 | 54 | |
| 20260904231445 | 78 | 260 | 4.3 | 15.6 | 0.00 | 0.00 | 0.00 | 53 | |
| 20260904231243 | 77 | 255 | 4.3 | 13.9 | 0.00 | 0.00 | 0.00 | 54 | |
| 20260904231041 | 77 | 300 | 7.0 | 13.9 | 0.00 | 0.00 | 0.00 | 54 | |
| 20260904230837 | 77 | 255 | 6.1 | 13.9 | 0.00 | 0.00 | 0.00 | 54 | |
| 20260904230635 | 78 | 253 | 13.0 | 13.9 | 0.00 | 0.00 | 0.00 | 54 | |
| 20260904230435 | 78 | 288 | 4.3 | 13.9 | 0.00 | 0.00 | 0.00 | 52 | |
| 20260904230233 | 78 | 255 | 6.1 | 13.0 | 0.00 | 0.00 | 0.00 | 53 | |
| 20260904230029 | 78 | 262 | 8.7 | 13.0 | 0.00 | 0.00 | 0.00 | 54 | |
| 20260904225829 | 77 | 268 | 10.4 | 13.0 | 0.00 | 0.00 | 0.00 | 53 | |
| 20260904225625 | 78 | 239 | 8.7 | 13.9 | 0.00 | 0.00 | 0.00 | 54 | |
| 20260904225425 | 78 | 277 | 7.0 | 13.9 | 0.00 | 0.00 | 0.00 | 53 | |
| 20260904225021 | 78 | 246 | 7.0 | 13.9 | 0.00 | 0.00 | 0.00 | 54 | |
| 20260904224819 | 78 | 265 | 7.8 | 13.9 | 0.00 | 0.00 | 0.00 | 54 | |
| 20260904224615 | 77 | 248 | 7.0 | 15.6 | 0.00 | 0.00 | 0.00 | 53 | |
| 20260904224415 | 77 | 255 | 9.6 | 15.6 | 0.00 | 0.00 | 0.00 | 55 | |
| 20260904224213 | 77 | 265 | 7.8 | 16.5 | 0.00 | 0.00 | 0.00 | 56 | |
| 20260904224009 | 77 | 257 | 11.3 | 16.5 | 0.00 | 0.00 | 0.00 | 57 | |
| 20260904223809 | 77 | 282 | 8.7 | 16.5 | 0.00 | 0.00 | 0.00 | 56 | |
| 20260904223607 | 77 | 253 | 9.6 | 15.6 | 0.00 | 0.00 | 0.00 | 55 | |
| 20260904223404 | 77 | 274 | 12.2 | 15.6 | 0.00 | 0.00 | 0.00 | 56 | |
| 20260904223204 | 77 | 241 | 9.6 | 16.5 | 0.00 | 0.00 | 0.00 | 56 | |
| 20260904223000 | 77 | 254 | 8.7 | 16.5 | 0.00 | 0.00 | 0.00 | 57 | |
| 20260904222800 | 77 | 275 | 13.0 | 16.5 | 0.00 | 0.00 | 0.00 | 57 | |
| 20260904222556 | 77 | 262 | 15.6 | 13.0 | 0.00 | 0.00 | 0.00 | 57 | |
| 20260904222355 | 77 | 296 | 9.6 | 13.0 | 0.00 | 0.00 | 0.00 | 56 | |
| 20260904222153 | 78 | 267 | 9.6 | 14.8 | 0.00 | 0.00 | 0.00 | 54 | |
| 20260904221952 | 78 | 293 | 3.5 | 14.8 | 0.00 | 0.00 | 0.00 | 55 | |
| 20260904221750 | 78 | 260 | 6.1 | 14.8 | 0.00 | 0.00 | 0.00 | 55 | |
| 20260904221548 | 78 | 267 | 8.7 | 13.0 | 0.00 | 0.00 | 0.00 | 56 | |
| 20260904221346 | 79 | 270 | 8.7 | 13.0 | 0.00 | 0.00 | 0.00 | 55 | |
| 20260904221144 | 79 | 253 | 11.3 | 14.8 | 0.00 | 0.00 | 0.00 | 54 | |
| 20260904220941 | 79 | 232 | 8.7 | 14.8 | 0.00 | 0.00 | 0.00 | 55 | |
| 20260904220740 | 79 | 277 | 10.4 | 12.2 | 0.00 | 0.00 | 0.00 | 55 | |
| 20260904220538 | 78 | 244 | 9.6 | 12.2 | 0.00 | 0.00 | 0.00 | 55 | |
| 20260904220334 | 79 | 272 | 9.6 | 12.2 | 0.00 | 0.00 | 0.00 | 55 | |
| 20260904220132 | 79 | 258 | 9.6 | 15.6 | 0.00 | 0.00 | 0.00 | 55 | |
| 20260904215124 | 78 | 262 | 11.3 | 13.9 | 0.00 | 0.00 | 0.00 | 55 | |
| 20260904214922 | 79 | 264 | 7.8 | 13.9 | 0.00 | 0.00 | 0.00 | 55 | |
| 20260904214719 | 79 | 247 | 8.7 | 14.8 | 0.00 | 0.00 | 0.00 | 54 | |
| 20260904214517 | 80 | 268 | 8.7 | 14.8 | 0.00 | 0.00 | 0.00 | 53 | |
| 20260904214316 | 80 | 246 | 7.8 | 14.8 | 0.00 | 0.00 | 0.00 | 53 | |
| 20260904214113 | 80 | 272 | 9.6 | 13.9 | 0.00 | 0.00 | 0.00 | 53 | |
| 20260904213912 | 80 | 250 | 8.7 | 13.9 | 0.00 | 0.00 | 0.00 | 53 | |
| 20260904213710 | 80 | 260 | 9.6 | 14.8 | 0.00 | 0.00 | 0.00 | 52 | |
| 20260904213306 | 80 | 241 | 7.0 | 14.8 | 0.00 | 0.00 | 0.00 | 52 | |
| 20260904213104 | 80 | 247 | 9.6 | 13.9 | 0.00 | 0.00 | 0.00 | 51 | |
| 20260904212902 | 80 | 254 | 7.8 | 13.9 | 0.00 | 0.00 | 0.00 | 51 | |
| 20260904212701 | 80 | 240 | 7.8 | 13.0 | 0.00 | 0.00 | 0.00 | 51 | |
| 20260904212458 | 80 | 262 | 8.7 | 13.0 | 0.00 | 0.00 | 0.00 | 49 | |
| 20260904212257 | 81 | 272 | 2.6 | 13.0 | 0.00 | 0.00 | 0.00 | 49 | |
| 20260904211852 | 81 | 274 | 6.1 | 13.9 | 0.00 | 0.00 | 0.00 | 50 | |
| 20260904211651 | 81 | 262 | 12.2 | 11.3 | 0.00 | 0.00 | 0.00 | 49 | |
| 20260904211449 | 81 | 279 | 6.1 | 11.3 | 0.00 | 0.00 | 0.00 | 49 | |
| 20260904211247 | 81 | 261 | 13.9 | 11.3 | 0.00 | 0.00 | 0.00 | 48 | |
| 20260904211045 | 81 | 268 | 5.2 | 14.8 | 0.00 | 0.00 | 0.00 | 47 | |
| 20260904210843 | 81 | 157 | 0.9 | 14.8 | 0.00 | 0.00 | 0.00 | 48 | |
| 20260904210237 | 81 | 271 | 9.6 | 13.9 | 0.00 | 0.00 | 0.00 | 48 | |
| 20260904210035 | 82 | 234 | 8.7 | 13.9 | 0.00 | 0.00 | 0.00 | 46 | |
| 20260904205834 | 82 | 268 | 6.1 | 13.9 | 0.00 | 0.00 | 0.00 | 46 | |
| 20260904205429 | 82 | 262 | 6.1 | 13.9 | 0.00 | 0.00 | 0.00 | 45 | |
| 20260904205227 | 81 | 271 | 3.5 | 14.8 | 0.00 | 0.00 | 0.00 | 45 | |
| 20260904205025 | 81 | 247 | 5.2 | 14.8 | 0.00 | 0.00 | 0.00 | 46 | |
| 20260904204824 | 81 | 271 | 7.8 | 14.8 | 0.00 | 0.00 | 0.00 | 44 | |
| 20260904204622 | 81 | 254 | 6.1 | 13.0 | 0.00 | 0.00 | 0.00 | 45 | |
| 20260904204420 | 81 | 272 | 5.2 | 13.0 | 0.00 | 0.00 | 0.00 | 45 | |
| 20260904204217 | 81 | 286 | 5.2 | 10.4 | 0.00 | 0.00 | 0.00 | 45 | |
| 20260904204016 | 81 | 244 | 1.7 | 10.4 | 0.00 | 0.00 | 0.00 | 45 | |
| 20260904203814 | 81 | 279 | 5.2 | 10.4 | 0.00 | 0.00 | 0.00 | 44 | |
| 20260904203612 | 81 | 268 | 7.0 | 12.2 | 0.00 | 0.00 | 0.00 | 45 | |
| 20260904203410 | 81 | 300 | 6.1 | 12.2 | 0.00 | 0.00 | 0.00 | 44 | |
| 20260904203208 | 81 | 261 | 8.7 | 12.2 | 0.00 | 0.00 | 0.00 | 43 | |
| 20260904202804 | 82 | 261 | 8.7 | 12.2 | 0.00 | 0.00 | 0.00 | 41 | |
| 20260904202602 | 81 | 285 | 1.7 | 11.3 | 0.00 | 0.00 | 0.00 | 43 | |
| 20260904202400 | 81 | 272 | 8.7 | 11.3 | 0.00 | 0.00 | 0.00 | 43 | |
| 20260904202158 | 81 | 277 | 7.8 | 13.0 | 0.00 | 0.00 | 0.00 | 43 | |
| 20260904201956 | 81 | 277 | 6.1 | 13.0 | 0.00 | 0.00 | 0.00 | 43 | |
| 20260904201754 | 81 | 240 | 6.1 | 13.0 | 0.00 | 0.00 | 0.00 | 43 | |
| 20260904201553 | 80 | 271 | 8.7 | 11.3 | 0.00 | 0.00 | 0.00 | 44 | |
| 20260904201350 | 81 | 289 | 3.5 | 11.3 | 0.00 | 0.00 | 0.00 | 44 | |
| 20260904201148 | 80 | 291 | 4.3 | 11.3 | 0.00 | 0.00 | 0.00 | 44 | |
| 20260904200946 | 81 | 277 | 7.8 | 11.3 | 0.00 | 0.00 | 0.00 | 44 | |
| 20260904200745 | 81 | 285 | 6.1 | 11.3 | 0.00 | 0.00 | 0.00 | 43 | |
| 20260904200542 | 81 | 278 | 7.0 | 11.3 | 0.00 | 0.00 | 0.00 | 43 | |
| 20260904200339 | 81 | 251 | 6.1 | 11.3 | 0.00 | 0.00 | 0.00 | 42 | |
| 20260904200137 | 81 | 291 | 3.5 | 7.8 | 0.00 | 0.00 | 0.00 | 42 | |
| 20260904195531 | 82 | 281 | 4.3 | 8.7 | 0.00 | 0.00 | 0.00 | 40 | |
| 20260904195329 | 83 | 258 | 4.3 | 8.7 | 0.00 | 0.00 | 0.00 | 40 | |
| 20260904195127 | 83 | 320 | 0.9 | 4.3 | 0.00 | 0.00 | 0.00 | 39 | |
| 20260904194927 | 83 | 146 | 0.0 | 4.3 | 0.00 | 0.00 | 0.00 | 39 | |
| 20260904194725 | 82 | 52 | 0.0 | 5.2 | 0.00 | 0.00 | 0.00 | 41 | |
| 20260904194521 | 82 | 171 | 0.0 | 5.2 | 0.00 | 0.00 | 0.00 | 40 | |
| 20260904194321 | 82 | 260 | 0.9 | 5.2 | 0.00 | 0.00 | 0.00 | 39 | |
| 20260904194119 | 82 | 213 | 2.6 | 7.0 | 0.00 | 0.00 | 0.00 | 40 | |
| 20260904193916 | 82 | 156 | 0.9 | 7.0 | 0.00 | 0.00 | 0.00 | 40 | |
| 20260904193716 | 82 | 226 | 2.6 | 6.1 | 0.00 | 0.00 | 0.00 | 41 | |
| 20260904193513 | 81 | 174 | 0.9 | 6.1 | 0.00 | 0.00 | 0.00 | 41 | |
| 20260904193110 | 81 | 205 | 1.7 | 4.3 | 0.00 | 0.00 | 0.00 | 41 | |
| 20260904192905 | 81 | 309 | 0.0 | 4.3 | 0.00 | 0.00 | 0.00 | 41 | |
| 20260904192705 | 81 | 275 | 3.5 | 5.2 | 0.00 | 0.00 | 0.00 | 40 | |
| 20260904192504 | 82 | 306 | 0.0 | 5.2 | 0.00 | 0.00 | 0.00 | 39 | |
| 20260904192300 | 82 | 285 | 3.5 | 5.2 | 0.00 | 0.00 | 0.00 | 39 | |
| 20260904192058 | 82 | 106 | 0.0 | 3.5 | 0.00 | 0.00 | 0.00 | 40 | |
| 20260904191856 | 82 | 284 | 0.0 | 3.5 | 0.00 | 0.00 | 0.00 | 40 | |
| 20260904191654 | 82 | 284 | 0.0 | 6.1 | 0.00 | 0.00 | 0.00 | 41 | |
| 20260904191453 | 82 | 119 | 0.0 | 6.1 | 0.00 | 0.00 | 0.00 | 41 | |
| 20260904191252 | 82 | 143 | 3.5 | 6.1 | 0.00 | 0.00 | 0.00 | 40 | |
| 20260904191049 | 82 | 161 | 2.6 | 5.2 | 0.00 | 0.00 | 0.00 | 40 | |
| 20260904190847 | 82 | 199 | 4.3 | 5.2 | 0.00 | 0.00 | 0.00 | 39 | |
| 20260904190646 | 82 | 156 | 1.7 | 2.6 | 0.00 | 0.00 | 0.00 | 41 | |
| 20260904190240 | 81 | 278 | 0.0 | 3.5 | 0.00 | 0.00 | 0.00 | 43 | |
| 20260904190040 | 80 | 278 | 0.0 | 3.5 | 0.00 | 0.00 | 0.00 | 44 | |
| 20260904185838 | 80 | 59 | 0.0 | 3.5 | 0.00 | 0.00 | 0.00 | 45 | |
| 20260904185634 | 79 | 257 | 0.9 | 4.3 | 0.00 | 0.00 | 0.00 | 46 | |
| 20260904185432 | 79 | 250 | 0.0 | 4.3 | 0.00 | 0.00 | 0.00 | 47 | |
| 20260904185230 | 78 | 195 | 0.0 | 7.0 | 0.00 | 0.00 | 0.00 | 47 | |
| 20260904185028 | 78 | 324 | 0.0 | 7.0 | 0.00 | 0.00 | 0.00 | 48 | |
| 20260904184828 | 77 | 305 | 1.7 | 7.0 | 0.00 | 0.00 | 0.00 | 48 | |
| 20260904184624 | 77 | 261 | 4.3 | 4.3 | 0.00 | 0.00 | 0.00 | 48 | |
| 20260904184422 | 77 | 285 | 1.7 | 4.3 | 0.00 | 0.00 | 0.00 | 49 | |
| 20260904184222 | 77 | 295 | 0.9 | 7.0 | 0.00 | 0.00 | 0.00 | 49 | |
| 20260904184020 | 77 | 257 | 1.7 | 7.0 | 0.00 | 0.00 | 0.00 | 50 | |
| 20260904183816 | 77 | 257 | 1.7 | 7.0 | 0.00 | 0.00 | 0.00 | 49 | |
| 20260904183614 | 77 | 288 | 3.5 | 6.1 | 0.00 | 0.00 | 0.00 | 49 | |
| 20260904183412 | 77 | 316 | 4.3 | 6.1 | 0.00 | 0.00 | 0.00 | 49 | |
| 20260904183210 | 77 | 315 | 0.9 | 9.6 | 0.00 | 0.00 | 0.00 | 49 | |
| 20260904183010 | 77 | 232 | 1.7 | 9.6 | 0.00 | 0.00 | 0.00 | 49 | |
| 20260904182806 | 77 | 233 | 3.5 | 9.6 | 0.00 | 0.00 | 0.00 | 50 | |
| 20260904182604 | 77 | 275 | 7.0 | 7.0 | 0.00 | 0.00 | 0.00 | 52 | |
| 20260904182403 | 76 | 292 | 0.0 | 7.0 | 0.00 | 0.00 | 0.00 | 52 | |
| 20260904182203 | 76 | 324 | 0.0 | 6.1 | 0.00 | 0.00 | 0.00 | 52 | |
| 20260904182000 | 76 | 317 | 4.3 | 6.1 | 0.00 | 0.00 | 0.00 | 52 | |
| 20260904181759 | 76 | 285 | 4.3 | 6.1 | 0.00 | 0.00 | 0.00 | 51 | |
| 20260904181555 | 76 | 320 | 0.0 | 7.0 | 0.00 | 0.00 | 0.00 | 52 | |
| 20260904181354 | 76 | 277 | 0.9 | 7.0 | 0.00 | 0.00 | 0.00 | 52 | |
| 20260904181151 | 76 | 264 | 3.5 | 8.7 | 0.00 | 0.00 | 0.00 | 53 | |
| 20260904180949 | 75 | 286 | 2.6 | 8.7 | 0.00 | 0.00 | 0.00 | 53 | |
| 20260904180747 | 75 | 262 | 0.0 | 8.7 | 0.00 | 0.00 | 0.00 | 54 | |
| 20260904180545 | 75 | 309 | 2.6 | 6.1 | 0.00 | 0.00 | 0.00 | 54 | |
| 20260904180343 | 75 | 277 | 7.8 | 6.1 | 0.00 | 0.00 | 0.00 | 53 | |
| 20260904180142 | 75 | 279 | 1.7 | 7.8 | 0.00 | 0.00 | 0.00 | 54 | |
| 20260904175939 | 75 | 282 | 4.3 | 7.8 | 0.00 | 0.00 | 0.00 | 54 | |
| 20260904175737 | 75 | 268 | 4.3 | 7.0 | 0.00 | 0.00 | 0.00 | 54 | |
| 20260904175537 | 76 | 260 | 6.1 | 7.0 | 0.00 | 0.00 | 0.00 | 54 | |
| 20260904175335 | 75 | 277 | 4.3 | 7.0 | 0.00 | 0.00 | 0.00 | 52 | |
| 20260904175132 | 77 | 265 | 6.1 | 4.3 | 0.00 | 0.00 | 0.00 | 51 | |
| 20260904174931 | 77 | 277 | 3.5 | 4.3 | 0.00 | 0.00 | 0.00 | 52 | |
| 20260904174729 | 77 | 132 | 0.9 | 1.7 | 0.00 | 0.00 | 0.00 | 53 | |
| 20260904174527 | 76 | 46 | 0.0 | 1.7 | 0.00 | 0.00 | 0.00 | 53 | |
| 20260904174325 | 76 | 87 | 1.7 | 1.7 | 0.00 | 0.00 | 0.00 | 54 | |
| 20260904174123 | 75 | 102 | 0.0 | 2.6 | 0.00 | 0.00 | 0.00 | 56 | |
| 20260904173919 | 75 | 239 | 0.0 | 2.6 | 0.00 | 0.00 | 0.00 | 56 | |
| 20260904173717 | 75 | 239 | 0.0 | 4.3 | 0.00 | 0.00 | 0.00 | 56 | |
| 20260904173517 | 75 | 270 | 0.0 | 4.3 | 0.00 | 0.00 | 0.00 | 55 | |
| 20260904173313 | 75 | 295 | 0.9 | 4.3 | 0.00 | 0.00 | 0.00 | 53 | |
| 20260904173111 | 75 | 299 | 3.5 | 5.2 | 0.00 | 0.00 | 0.00 | 52 | |
| 20260904172909 | 75 | 303 | 1.7 | 5.2 | 0.00 | 0.00 | 0.00 | 52 | |
| 20260904172707 | 76 | 309 | 0.0 | 6.1 | 0.00 | 0.00 | 0.00 | 51 | |
| 20260904172506 | 75 | 309 | 0.0 | 6.1 | 0.00 | 0.00 | 0.00 | 52 | |
| 20260904172305 | 75 | 87 | 3.5 | 6.1 | 0.00 | 0.00 | 0.00 | 54 | |
| 20260904172102 | 75 | 135 | 1.7 | 5.2 | 0.00 | 0.00 | 0.00 | 55 | |
| 20260904171900 | 75 | 147 | 1.7 | 5.2 | 0.00 | 0.00 | 0.00 | 55 | |
| 20260904171658 | 75 | 216 | 1.7 | 5.2 | 0.00 | 0.00 | 0.00 | 55 | |
| 20260904171456 | 75 | 156 | 0.0 | 5.2 | 0.00 | 0.00 | 0.00 | 57 | |
| 20260904171254 | 75 | 53 | 0.0 | 5.2 | 0.00 | 0.00 | 0.00 | 57 | |
| 20260904171052 | 74 | 64 | 0.9 | 2.6 | 0.00 | 0.00 | 0.00 | 58 | |
| 20260904170850 | 74 | 71 | 0.0 | 2.6 | 0.00 | 0.00 | 0.00 | 59 | |
| 20260904170648 | 74 | 293 | 0.0 | 5.2 | 0.00 | 0.00 | 0.00 | 57 | |
| 20260904170446 | 75 | 277 | 0.9 | 5.2 | 0.00 | 0.00 | 0.00 | 56 | |
| 20260904170244 | 75 | 112 | 0.9 | 4.3 | 0.00 | 0.00 | 0.00 | 57 | |
| 20260904170042 | 75 | 181 | 1.7 | 4.3 | 0.00 | 0.00 | 0.00 | 57 | |
| 20260904165842 | 75 | 146 | 2.6 | 4.3 | 0.00 | 0.00 | 0.00 | 58 | |
| 20260904165436 | 74 | 172 | 0.0 | 5.2 | 0.00 | 0.00 | 0.00 | 58 | |
| 20260904165234 | 73 | 165 | 0.0 | 7.8 | 0.00 | 0.00 | 0.00 | 60 | |
| 20260904165032 | 73 | 82 | 2.6 | 7.8 | 0.00 | 0.00 | 0.00 | 60 | |
| 20260904164832 | 73 | 92 | 2.6 | 7.8 | 0.00 | 0.00 | 0.00 | 60 | |
| 20260904164426 | 73 | 80 | 2.6 | 6.1 | 0.00 | 0.00 | 0.00 | 60 | |
| 20260904164224 | 73 | 102 | 4.3 | 6.1 | 0.00 | 0.00 | 0.00 | 61 | |
| 20260904164022 | 73 | 90 | 4.3 | 6.1 | 0.00 | 0.00 | 0.00 | 61 | |
| 20260904163820 | 73 | 90 | 3.5 | 6.1 | 0.00 | 0.00 | 0.00 | 61 | |
| 20260904163618 | 73 | 122 | 1.7 | 7.8 | 0.00 | 0.00 | 0.00 | 61 | |
| 20260904163416 | 72 | 140 | 3.5 | 7.8 | 0.00 | 0.00 | 0.00 | 61 | |
| 20260904163214 | 72 | 118 | 4.3 | 7.0 | 0.00 | 0.00 | 0.00 | 61 | |
| 20260904163012 | 72 | 95 | 6.1 | 7.0 | 0.00 | 0.00 | 0.00 | 61 | |
| 20260904162812 | 72 | 112 | 3.5 | 7.0 | 0.00 | 0.00 | 0.00 | 60 | |
| 20260904162611 | 72 | 153 | 1.7 | 7.0 | 0.00 | 0.00 | 0.00 | 62 | |
| 20260904162407 | 72 | 56 | 0.0 | 7.0 | 0.00 | 0.00 | 0.00 | 63 | |
| 20260904162205 | 72 | 36 | 0.0 | 7.0 | 0.00 | 0.00 | 0.00 | 64 | |
| 20260904162003 | 72 | 119 | 6.1 | 7.0 | 0.00 | 0.00 | 0.00 | 63 | |
| 20260904161801 | 72 | 118 | 4.3 | 7.0 | 0.00 | 0.00 | 0.00 | 63 | |
| 20260904161601 | 72 | 163 | 2.6 | 6.1 | 0.00 | 0.00 | 0.00 | 63 | |
| 20260904161358 | 72 | 151 | 3.5 | 6.1 | 0.00 | 0.00 | 0.00 | 63 | |
| 20260904161157 | 72 | 132 | 3.5 | 5.2 | 0.00 | 0.00 | 0.00 | 63 | |
| 20260904160953 | 72 | 109 | 4.3 | 5.2 | 0.00 | 0.00 | 0.00 | 65 | |
| 20260904160753 | 72 | 87 | 0.9 | 5.2 | 0.00 | 0.00 | 0.00 | 66 | |
| 20260904160551 | 71 | 87 | 0.9 | 6.1 | 0.00 | 0.00 | 0.00 | 66 | |
| 20260904160347 | 71 | 132 | 3.5 | 6.1 | 0.00 | 0.00 | 0.00 | 67 | |
| 20260904160145 | 71 | 122 | 3.5 | 5.2 | 0.00 | 0.00 | 0.00 | 67 | |
| 20260904155948 | 71 | 111 | 3.5 | 5.2 | 0.00 | 0.00 | 0.00 | 66 | |
| 20260904155945 | 71 | 111 | 3.5 | 5.2 | 0.00 | 0.00 | 0.00 | 66 | |
| 20260904155741 | 71 | 133 | 4.3 | 6.1 | 0.00 | 0.00 | 0.00 | 66 | |
| 20260904155337 | 71 | 122 | 3.5 | 6.1 | 0.00 | 0.00 | 0.00 | 67 | |
| 20260904155135 | 71 | 151 | 2.6 | 6.1 | 0.00 | 0.00 | 0.00 | 68 | |
| 20260904154933 | 70 | 122 | 3.5 | 6.1 | 0.00 | 0.00 | 0.00 | 69 | |
| 20260904154733 | 70 | 151 | 2.6 | 7.0 | 0.00 | 0.00 | 0.00 | 68 | |
| 20260904154529 | 70 | 137 | 3.5 | 7.0 | 0.00 | 0.00 | 0.00 | 70 | |
| 20260904154327 | 70 | 116 | 2.6 | 7.0 | 0.00 | 0.00 | 0.00 | 70 | |
| 20260904154125 | 69 | 127 | 2.6 | 5.2 | 0.00 | 0.00 | 0.00 | 71 | |
| 20260904153924 | 69 | 150 | 3.5 | 5.2 | 0.00 | 0.00 | 0.00 | 72 | |
| 20260904153722 | 69 | 135 | 2.6 | 6.1 | 0.00 | 0.00 | 0.00 | 72 | |
| 20260904153520 | 69 | 113 | 3.5 | 6.1 | 0.00 | 0.00 | 0.00 | 72 | |
| 20260904153318 | 69 | 135 | 4.3 | 6.1 | 0.00 | 0.00 | 0.00 | 72 | |
| 20260904153116 | 69 | 95 | 4.3 | 6.1 | 0.00 | 0.00 | 0.00 | 73 | |
| 20260904152914 | 69 | 137 | 2.6 | 6.1 | 0.00 | 0.00 | 0.00 | 74 | |
| 20260904152712 | 68 | 132 | 2.6 | 6.1 | 0.00 | 0.00 | 0.00 | 74 | |
| 20260904152510 | 68 | 136 | 6.1 | 6.1 | 0.00 | 0.00 | 0.00 | 75 | |
| 20260904152308 | 68 | 123 | 2.6 | 6.1 | 0.00 | 0.00 | 0.00 | 75 | |
| 20260904152106 | 68 | 111 | 4.3 | 5.2 | 0.00 | 0.00 | 0.00 | 74 | |
| 20260904151904 | 68 | 118 | 3.5 | 5.2 | 0.00 | 0.00 | 0.00 | 75 | |
| 20260904151703 | 68 | 112 | 3.5 | 5.2 | 0.00 | 0.00 | 0.00 | 76 | |
| 20260904151501 | 67 | 116 | 4.3 | 5.2 | 0.00 | 0.00 | 0.00 | 76 | |
| 20260904151259 | 67 | 108 | 3.5 | 5.2 | 0.00 | 0.00 | 0.00 | 76 | |
| 20260904151057 | 67 | 94 | 4.3 | 4.3 | 0.00 | 0.00 | 0.00 | 76 | |
| 20260904150855 | 67 | 101 | 4.3 | 4.3 | 0.00 | 0.00 | 0.00 | 76 | |
| 20260904150653 | 66 | 132 | 1.7 | 2.6 | 0.00 | 0.00 | 0.00 | 77 | |
| 20260904150451 | 66 | 144 | 0.9 | 2.6 | 0.00 | 0.00 | 0.00 | 78 | |
| 20260904150249 | 66 | 112 | 2.6 | 2.6 | 0.00 | 0.00 | 0.00 | 78 | |
| 20260904150047 | 65 | 108 | 1.7 | 3.5 | 0.00 | 0.00 | 0.00 | 79 | |
| 20260904145845 | 65 | 130 | 1.7 | 3.5 | 0.00 | 0.00 | 0.00 | 79 | |
| 20260904145643 | 65 | 129 | 0.9 | 2.6 | 0.00 | 0.00 | 0.00 | 80 | |
| 20260904145038 | 64 | 90 | 2.6 | 0.0 | 0.00 | 0.00 | 0.00 | 81 | |
| 20260904144432 | 64 | 53 | 0.0 | 0.0 | 0.00 | 0.00 | 0.00 | 82 | |
| 20260904144232 | 64 | 53 | 0.0 | 0.0 | 0.00 | 0.00 | 0.00 | 82 | |
| 20260904144028 | 63 | 53 | 0.0 | 0.0 | 0.00 | 0.00 | 0.00 | 83 | |
| 20260904143826 | 63 | 53 | 0.0 | 0.0 | 0.00 | 0.00 | 0.00 | 84 | |
| 20260904143624 | 63 | 53 | 0.0 | 0.0 | 0.00 | 0.00 | 0.00 | 85 | |
| 20260904143423 | 63 | 53 | 0.0 | 0.0 | 0.00 | 0.00 | 0.00 | 86 | |
| 20260904143019 | 62 | 53 | 0.0 | 0.0 | 0.00 | 0.00 | 0.00 | 86 | |
| 20260904142817 | 62 | 53 | 0.0 | 0.0 | 0.00 | 0.00 | 0.00 | 86 | |
| 20260904142616 | 62 | 53 | 0.0 | 0.0 | 0.00 | 0.00 | 0.00 | 87 | |
| 20260904142413 | 62 | 53 | 0.0 | 0.0 | 0.00 | 0.00 | 0.00 | 87 | |
| 20260904142211 | 62 | 53 | 0.0 | 0.0 | 0.00 | 0.00 | 0.00 | 87 | |
| 20260904142009 | 62 | 53 | 0.0 | 0.0 | 0.00 | 0.00 | 0.00 | 87 | |
| 20260904141807 | 62 | 53 | 0.0 | 0.0 | 0.00 | 0.00 | 0.00 | 87 | |
| 20260904141605 | 62 | 53 | 0.0 | 0.0 | 0.00 | 0.00 | 0.00 | 87 | |
| 20260904141403 | 62 | 53 | 0.0 | 0.0 | 0.00 | 0.00 | 0.00 | 87 | |
| 20260904141202 | 62 | 53 | 0.0 | 0.0 | 0.00 | 0.00 | 0.00 | 87 | |
| 20260904141000 | 62 | 53 | 0.0 | 0.0 | 0.00 | 0.00 | 0.00 | 87 | |
| 20260904140758 | 62 | 53 | 0.0 | 0.0 | 0.00 | 0.00 | 0.00 | 87 | |
| 20260904140556 | 61 | 53 | 0.0 | 0.0 | 0.00 | 0.00 | 0.00 | 87 | |
| 20260904140354 | 61 | 53 | 0.0 | 0.0 | 0.00 | 0.00 | 0.00 | 88 | |
| 20260904140154 | 61 | 53 | 0.0 | 0.0 | 0.00 | 0.00 | 0.00 | 88 | |
| 20260904135952 | 61 | 53 | 0.0 | 0.0 | 0.00 | 0.00 | 0.00 | 88 | |
| 20260904135748 | 61 | 53 | 0.0 | 0.0 | 0.00 | 0.00 | 0.00 | 88 | |
| 20260904135547 | 61 | 53 | 0.0 | 0.0 | 0.00 | 0.00 | 0.00 | 88 | |
| 20260904135344 | 61 | 53 | 0.0 | 0.0 | 0.00 | 0.00 | 0.00 | 88 | |
| 20260904135143 | 61 | 53 | 0.0 | 0.9 | 0.00 | 0.00 | 0.00 | 88 | |
| 20260904134739 | 61 | 53 | 0.0 | 1.7 | 0.00 | 0.00 | 0.00 | 88 | |
| 20260904134335 | 61 | 63 | 0.0 | 1.7 | 0.00 | 0.00 | 0.00 | 88 | |
| 20260904134133 | 61 | 57 | 0.0 | 1.7 | 0.00 | 0.00 | 0.00 | 88 | |
| 20260904133933 | 61 | 54 | 0.0 | 1.7 | 0.00 | 0.00 | 0.00 | 88 | |
| 20260904133731 | 61 | 71 | 0.9 | 0.0 | 0.00 | 0.00 | 0.00 | 88 | |
| 20260904133325 | 61 | 42 | 0.0 | 0.0 | 0.00 | 0.00 | 0.00 | 88 | |
| 20260904132922 | 61 | 42 | 0.0 | 0.9 | 0.00 | 0.00 | 0.00 | 88 | |
| 20260904132720 | 61 | 82 | 0.0 | 0.9 | 0.00 | 0.00 | 0.00 | 88 | |
| 20260904132518 | 61 | 82 | 0.0 | 0.9 | 0.00 | 0.00 | 0.00 | 88 | |
| 20260904132316 | 61 | 82 | 0.0 | 0.9 | 0.00 | 0.00 | 0.00 | 88 | |
| 20260904132114 | 61 | 60 | 0.0 | 0.0 | 0.00 | 0.00 | 0.00 | 88 | |
| 20260904131912 | 61 | 60 | 0.0 | 0.0 | 0.00 | 0.00 | 0.00 | 88 | |
| 20260904131710 | 61 | 60 | 0.0 | 0.0 | 0.00 | 0.00 | 0.00 | 88 | |
| 20260904131508 | 61 | 60 | 0.0 | 0.0 | 0.00 | 0.00 | 0.00 | 88 | |
| 20260904131306 | 61 | 60 | 0.0 | 0.0 | 0.00 | 0.00 | 0.00 | 88 | |
| 20260904131104 | 61 | 60 | 0.0 | 4.3 | 0.00 | 0.00 | 0.00 | 88 | |
| 20260904130903 | 61 | 60 | 0.0 | 4.3 | 0.00 | 0.00 | 0.00 | 88 | |
| 20260904130701 | 61 | 60 | 0.0 | 4.3 | 0.00 | 0.00 | 0.00 | 88 | |
| 20260904130257 | 61 | 106 | 1.7 | 4.3 | 0.00 | 0.00 | 0.00 | 88 | |
| 20260904130055 | 61 | 108 | 3.5 | 4.3 | 0.00 | 0.00 | 0.00 | 88 | |
| 20260904125853 | 61 | 75 | 0.9 | 4.3 | 0.00 | 0.00 | 0.00 | 88 | |
| 20260904125651 | 60 | 106 | 4.3 | 3.5 | 0.00 | 0.00 | 0.00 | 88 | |
| 20260904125449 | 60 | 75 | 1.7 | 3.5 | 0.00 | 0.00 | 0.00 | 88 | |
| 20260904125247 | 60 | 104 | 2.6 | 3.5 | 0.00 | 0.00 | 0.00 | 88 | |
| 20260904125045 | 60 | 102 | 1.7 | 3.5 | 0.00 | 0.00 | 0.00 | 87 | |
| 20260904124844 | 60 | 106 | 2.6 | 3.5 | 0.00 | 0.00 | 0.00 | 87 | |
| 20260904124642 | 60 | 112 | 0.9 | 3.5 | 0.00 | 0.00 | 0.00 | 87 | |
| 20260904124441 | 60 | 120 | 1.7 | 3.5 | 0.00 | 0.00 | 0.00 | 87 | |
| 20260904124238 | 60 | 106 | 2.6 | 4.3 | 0.00 | 0.00 | 0.00 | 87 | |
| 20260904124036 | 60 | 113 | 1.7 | 4.3 | 0.00 | 0.00 | 0.00 | 87 | |
| 20260904123834 | 60 | 112 | 2.6 | 4.3 | 0.00 | 0.00 | 0.00 | 88 | |
| 20260904123632 | 60 | 99 | 3.5 | 3.5 | 0.00 | 0.00 | 0.00 | 88 | |
| 20260904123430 | 60 | 102 | 2.6 | 3.5 | 0.00 | 0.00 | 0.00 | 88 | |
| 20260904123228 | 60 | 97 | 0.9 | 0.0 | 0.00 | 0.00 | 0.00 | 88 | |
| 20260904123026 | 60 | 113 | 2.6 | 0.0 | 0.00 | 0.00 | 0.00 | 88 | |
| 20260904122824 | 60 | 175 | 0.0 | 0.0 | 0.00 | 0.00 | 0.00 | 87 | |
| 20260904122623 | 60 | 175 | 0.0 | 0.0 | 0.00 | 0.00 | 0.00 | 87 | |
| 20260904122422 | 60 | 175 | 0.0 | 0.0 | 0.00 | 0.00 | 0.00 | 88 | |
| 20260904122219 | 60 | 175 | 0.0 | 0.0 | 0.00 | 0.00 | 0.00 | 88 | |
| 20260904122017 | 60 | 175 | 0.0 | 0.0 | 0.00 | 0.00 | 0.00 | 88 | |
| 20260904121816 | 60 | 175 | 0.0 | 0.0 | 0.00 | 0.00 | 0.00 | 88 | |
| 20260904121613 | 60 | 175 | 0.0 | 0.0 | 0.00 | 0.00 | 0.00 | 88 | |
| 20260904121411 | 60 | 175 | 0.0 | 0.0 | 0.00 | 0.00 | 0.00 | 88 | |
| 20260904121209 | 60 | 175 | 0.0 | 0.0 | 0.00 | 0.00 | 0.00 | 88 | |
| 20260904120805 | 60 | 175 | 0.0 | 0.0 | 0.00 | 0.00 | 0.00 | 88 | |
| 20260904120605 | 60 | 175 | 0.0 | 0.0 | 0.00 | 0.00 | 0.00 | 88 | |
| 20260904120402 | 60 | 175 | 0.0 | 0.0 | 0.00 | 0.00 | 0.00 | 88 | |
| 20260904120200 | 60 | 175 | 0.0 | 0.0 | 0.00 | 0.00 | 0.00 | 88 | |
| 20260904115958 | 60 | 175 | 0.0 | 0.0 | 0.00 | 0.00 | 0.00 | 88 | |
| 20260904115556 | 60 | 175 | 0.0 | 0.0 | 0.00 | 0.00 | 0.00 | 88 | |
| 20260904115352 | 60 | 175 | 0.0 | 0.0 | 0.00 | 0.00 | 0.00 | 88 | |
| 20260904115150 | 60 | 175 | 0.0 | 0.0 | 0.00 | 0.00 | 0.00 | 88 | |
| 20260904114948 | 60 | 175 | 0.0 | 0.0 | 0.00 | 0.00 | 0.00 | 89 | |
| 20260904114746 | 59 | 175 | 0.0 | 0.0 | 0.00 | 0.00 | 0.00 | 88 | |
| 20260904114544 | 60 | 175 | 0.0 | 0.0 | 0.00 | 0.00 | 0.00 | 88 | |
| 20260904114343 | 59 | 175 | 0.0 | 0.0 | 0.00 | 0.00 | 0.00 | 88 | |
| 20260904114141 | 59 | 175 | 0.0 | 0.0 | 0.00 | 0.00 | 0.00 | 88 | |
| 20260904113939 | 59 | 175 | 0.0 | 0.0 | 0.00 | 0.00 | 0.00 | 88 | |
| 20260904113737 | 59 | 175 | 0.0 | 0.0 | 0.00 | 0.00 | 0.00 | 88 | |
| 20260904113535 | 59 | 175 | 0.0 | 0.0 | 0.00 | 0.00 | 0.00 | 88 | |
| 20260904113333 | 59 | 175 | 0.0 | 0.0 | 0.00 | 0.00 | 0.00 | 88 | |
| 20260904113131 | 59 | 175 | 0.0 | 0.0 | 0.00 | 0.00 | 0.00 | 88 | |
| 20260904112929 | 59 | 175 | 0.0 | 0.0 | 0.00 | 0.00 | 0.00 | 88 | |
| 20260904112729 | 59 | 175 | 0.0 | 0.0 | 0.00 | 0.00 | 0.00 | 88 | |
| 20260904112525 | 59 | 175 | 0.0 | 0.0 | 0.00 | 0.00 | 0.00 | 88 | |
| 20260904112324 | 59 | 175 | 0.0 | 0.0 | 0.00 | 0.00 | 0.00 | 88 | |
| 20260904112122 | 59 | 175 | 0.0 | 0.0 | 0.00 | 0.00 | 0.00 | 88 | |
| 20260904111920 | 59 | 175 | 0.0 | 0.0 | 0.00 | 0.00 | 0.00 | 88 | |
| 20260904111718 | 59 | 175 | 0.0 | 0.0 | 0.00 | 0.00 | 0.00 | 88 | |
| 20260904111516 | 59 | 175 | 0.0 | 0.0 | 0.00 | 0.00 | 0.00 | 87 | |
| 20260904111314 | 59 | 175 | 0.0 | 0.0 | 0.00 | 0.00 | 0.00 | 87 | |
| 20260904111113 | 59 | 175 | 0.0 | 0.0 | 0.00 | 0.00 | 0.00 | 87 | |
| 20260904110912 | 59 | 175 | 0.0 | 0.0 | 0.00 | 0.00 | 0.00 | 87 | |
| 20260904110710 | 59 | 175 | 0.0 | 0.0 | 0.00 | 0.00 | 0.00 | 87 | |
| 20260904110306 | 59 | 175 | 0.0 | 0.0 | 0.00 | 0.00 | 0.00 | 87 | |
| 20260904110105 | 59 | 175 | 0.0 | 0.0 | 0.00 | 0.00 | 0.00 | 87 | |
| 20260904105902 | 59 | 175 | 0.0 | 0.0 | 0.00 | 0.00 | 0.00 | 87 | |
| 20260904105659 | 59 | 175 | 0.0 | 0.0 | 0.00 | 0.00 | 0.00 | 87 | |
| 20260904105458 | 59 | 175 | 0.0 | 0.0 | 0.00 | 0.00 | 0.00 | 87 | |
| 20260904105255 | 59 | 175 | 0.0 | 0.0 | 0.00 | 0.00 | 0.00 | 87 | |
| 20260904105053 | 59 | 175 | 0.0 | 0.0 | 0.00 | 0.00 | 0.00 | 86 | |
| 20260904104853 | 59 | 175 | 0.0 | 0.0 | 0.00 | 0.00 | 0.00 | 86 | |
| 20260904104650 | 59 | 175 | 0.0 | 0.0 | 0.00 | 0.00 | 0.00 | 86 | |
| 20260904104447 | 59 | 175 | 0.0 | 0.0 | 0.00 | 0.00 | 0.00 | 86 | |
| 20260904104043 | 59 | 175 | 0.0 | 0.0 | 0.00 | 0.00 | 0.00 | 87 | |
| 20260904103842 | 59 | 175 | 0.0 | 0.0 | 0.00 | 0.00 | 0.00 | 87 | |
| 20260904103642 | 59 | 175 | 0.0 | 0.0 | 0.00 | 0.00 | 0.00 | 87 | |
| 20260904103438 | 59 | 175 | 0.0 | 0.0 | 0.00 | 0.00 | 0.00 | 86 | |
| 20260904103236 | 59 | 175 | 0.0 | 0.0 | 0.00 | 0.00 | 0.00 | 86 | |
| 20260904103034 | 59 | 175 | 0.0 | 0.0 | 0.00 | 0.00 | 0.00 | 86 | |
| 20260904102832 | 59 | 175 | 0.0 | 0.0 | 0.00 | 0.00 | 0.00 | 86 | |
| 20260904102630 | 59 | 175 | 0.0 | 0.0 | 0.00 | 0.00 | 0.00 | 86 | |
| 20260904102428 | 60 | 175 | 0.0 | 0.0 | 0.00 | 0.00 | 0.00 | 86 | |
| 20260904102226 | 59 | 175 | 0.0 | 0.0 | 0.00 | 0.00 | 0.00 | 86 | |
| 20260904102024 | 59 | 175 | 0.0 | 0.0 | 0.00 | 0.00 | 0.00 | 86 | |
| 20260904101823 | 60 | 175 | 0.0 | 0.0 | 0.00 | 0.00 | 0.00 | 86 | |
| 20260904101621 | 60 | 175 | 0.0 | 0.0 | 0.00 | 0.00 | 0.00 | 86 | |
| 20260904101419 | 60 | 175 | 0.0 | 0.0 | 0.00 | 0.00 | 0.00 | 86 | |
| 20260904101217 | 60 | 175 | 0.0 | 0.0 | 0.00 | 0.00 | 0.00 | 86 | |
| 20260904101015 | 59 | 175 | 0.0 | 0.0 | 0.00 | 0.00 | 0.00 | 86 | |
| 20260904100813 | 60 | 175 | 0.0 | 0.0 | 0.00 | 0.00 | 0.00 | 86 | |
| 20260904100611 | 59 | 175 | 0.0 | 0.0 | 0.00 | 0.00 | 0.00 | 86 | |
| 20260904100409 | 59 | 175 | 0.0 | 0.0 | 0.00 | 0.00 | 0.00 | 86 | |
| 20260904100207 | 59 | 175 | 0.0 | 0.0 | 0.00 | 0.00 | 0.00 | 86 | |
| 20260904100006 | 59 | 175 | 0.0 | 0.0 | 0.00 | 0.00 | 0.00 | 86 | |
| 20260904095803 | 60 | 175 | 0.0 | 0.0 | 0.00 | 0.00 | 0.00 | 86 | |
| 20260904095602 | 59 | 175 | 0.0 | 0.0 | 0.00 | 0.00 | 0.00 | 86 | |
| 20260904095400 | 59 | 175 | 0.0 | 0.0 | 0.00 | 0.00 | 0.00 | 86 | |
| 20260904095159 | 59 | 175 | 0.0 | 0.0 | 0.00 | 0.00 | 0.00 | 86 | |
| 20260904094956 | 60 | 175 | 0.0 | 0.0 | 0.00 | 0.00 | 0.00 | 86 | |
| 20260904094754 | 60 | 175 | 0.0 | 0.0 | 0.00 | 0.00 | 0.00 | 86 | |
| 20260904094552 | 60 | 175 | 0.0 | 0.0 | 0.00 | 0.00 | 0.00 | 86 | |
| 20260904094350 | 60 | 175 | 0.0 | 0.0 | 0.00 | 0.00 | 0.00 | 86 | |
| 20260904094148 | 60 | 175 | 0.0 | 0.0 | 0.00 | 0.00 | 0.00 | 86 | |
| 20260904093946 | 59 | 175 | 0.0 | 0.0 | 0.00 | 0.00 | 0.00 | 86 | |
| 20260904093746 | 60 | 175 | 0.0 | 0.0 | 0.00 | 0.00 | 0.00 | 86 | |
| 20260904093543 | 60 | 175 | 0.0 | 0.0 | 0.00 | 0.00 | 0.00 | 85 | |
| 20260904093341 | 60 | 175 | 0.0 | 0.0 | 0.00 | 0.00 | 0.00 | 85 | |
| 20260904093139 | 60 | 175 | 0.0 | 0.0 | 0.00 | 0.00 | 0.00 | 85 | |
| 20260904092937 | 60 | 175 | 0.0 | 0.0 | 0.00 | 0.00 | 0.00 | 85 | |
| 20260904092735 | 60 | 175 | 0.0 | 0.0 | 0.00 | 0.00 | 0.00 | 85 | |
| 20260904092533 | 60 | 175 | 0.0 | 0.0 | 0.00 | 0.00 | 0.00 | 85 | |
| 20260904092333 | 60 | 175 | 0.0 | 0.0 | 0.00 | 0.00 | 0.00 | 85 | |
| 20260904092129 | 60 | 175 | 0.0 | 0.0 | 0.00 | 0.00 | 0.00 | 85 | |
| 20260904091929 | 60 | 175 | 0.0 | 0.0 | 0.00 | 0.00 | 0.00 | 85 | |
| 20260904091524 | 60 | 175 | 0.0 | 0.0 | 0.00 | 0.00 | 0.00 | 85 | |
| 20260904091322 | 60 | 175 | 0.0 | 0.0 | 0.00 | 0.00 | 0.00 | 85 | |
| 20260904091120 | 60 | 175 | 0.0 | 0.0 | 0.00 | 0.00 | 0.00 | 85 | |
| 20260904090918 | 60 | 175 | 0.0 | 0.0 | 0.00 | 0.00 | 0.00 | 85 | |
| 20260904090716 | 60 | 175 | 0.0 | 0.0 | 0.00 | 0.00 | 0.00 | 85 | |
| 20260904090514 | 60 | 175 | 0.0 | 0.0 | 0.00 | 0.00 | 0.00 | 85 | |
| 20260904090312 | 60 | 175 | 0.0 | 0.0 | 0.00 | 0.00 | 0.00 | 85 | |
| 20260904090110 | 60 | 175 | 0.0 | 0.0 | 0.00 | 0.00 | 0.00 | 85 | |
| 20260904085908 | 60 | 175 | 0.0 | 0.0 | 0.00 | 0.00 | 0.00 | 85 | |
| 20260904085305 | 60 | 175 | 0.0 | 0.0 | 0.00 | 0.00 | 0.00 | 85 | |
| 20260904085101 | 60 | 175 | 0.0 | 0.0 | 0.00 | 0.00 | 0.00 | 84 | |
| 20260904084859 | 60 | 175 | 0.0 | 0.0 | 0.00 | 0.00 | 0.00 | 84 | |
| 20260904084657 | 60 | 175 | 0.0 | 0.0 | 0.00 | 0.00 | 0.00 | 84 | |
| 20260904084455 | 60 | 175 | 0.0 | 0.0 | 0.00 | 0.00 | 0.00 | 84 | |
| 20260904084255 | 60 | 175 | 0.0 | 0.0 | 0.00 | 0.00 | 0.00 | 84 | |
| 20260904084051 | 60 | 175 | 0.0 | 0.0 | 0.00 | 0.00 | 0.00 | 84 | |
| 20260904083849 | 60 | 175 | 0.0 | 0.0 | 0.00 | 0.00 | 0.00 | 84 | |
| 20260904083647 | 60 | 175 | 0.0 | 0.0 | 0.00 | 0.00 | 0.00 | 84 | |
| 20260904083445 | 60 | 175 | 0.0 | 0.0 | 0.00 | 0.00 | 0.00 | 84 | |
| 20260904083244 | 60 | 175 | 0.0 | 0.0 | 0.00 | 0.00 | 0.00 | 84 | |
| 20260904083044 | 61 | 175 | 0.0 | 0.0 | 0.00 | 0.00 | 0.00 | 84 | |
| 20260904082840 | 61 | 175 | 0.0 | 0.0 | 0.00 | 0.00 | 0.00 | 84 | |
| 20260904082638 | 61 | 175 | 0.0 | 0.0 | 0.00 | 0.00 | 0.00 | 84 | |
| 20260904082436 | 61 | 175 | 0.0 | 0.0 | 0.00 | 0.00 | 0.00 | 84 | |
| 20260904082234 | 61 | 175 | 0.0 | 0.0 | 0.00 | 0.00 | 0.00 | 84 | |
| 20260904082032 | 61 | 175 | 0.0 | 0.0 | 0.00 | 0.00 | 0.00 | 84 | |
| 20260904081830 | 61 | 175 | 0.0 | 0.0 | 0.00 | 0.00 | 0.00 | 84 | |
| 20260904081628 | 61 | 175 | 0.0 | 0.0 | 0.00 | 0.00 | 0.00 | 84 | |
| 20260904081426 | 61 | 175 | 0.0 | 0.0 | 0.00 | 0.00 | 0.00 | 84 | |
| 20260904081224 | 61 | 175 | 0.0 | 0.0 | 0.00 | 0.00 | 0.00 | 84 | |
| 20260904081024 | 61 | 175 | 0.0 | 0.0 | 0.00 | 0.00 | 0.00 | 84 | |
| 20260904080821 | 61 | 175 | 0.0 | 0.0 | 0.00 | 0.00 | 0.00 | 84 | |
| 20260904080619 | 61 | 175 | 0.0 | 0.0 | 0.00 | 0.00 | 0.00 | 84 | |
| 20260904080417 | 61 | 175 | 0.0 | 0.0 | 0.00 | 0.00 | 0.00 | 84 | |
| 20260904080215 | 61 | 175 | 0.0 | 0.0 | 0.00 | 0.00 | 0.00 | 84 | |
| 20260904080013 | 61 | 175 | 0.0 | 0.0 | 0.00 | 0.00 | 0.00 | 84 | |
| 20260904075811 | 61 | 175 | 0.0 | 0.0 | 0.00 | 0.00 | 0.00 | 85 | |
| 20260904075609 | 61 | 175 | 0.0 | 0.0 | 0.00 | 0.00 | 0.00 | 85 | |
| 20260904075205 | 61 | 175 | 0.0 | 0.0 | 0.00 | 0.00 | 0.00 | 85 | |
| 20260904075004 | 61 | 175 | 0.0 | 0.0 | 0.00 | 0.00 | 0.00 | 84 | |
| 20260904074804 | 61 | 175 | 0.0 | 0.0 | 0.00 | 0.00 | 0.00 | 84 | |
| 20260904074600 | 61 | 175 | 0.0 | 0.0 | 0.00 | 0.00 | 0.00 | 84 | |
| 20260904074358 | 61 | 175 | 0.0 | 0.0 | 0.00 | 0.00 | 0.00 | 84 | |
| 20260904074156 | 61 | 175 | 0.0 | 0.0 | 0.00 | 0.00 | 0.00 | 84 | |
| 20260904073954 | 61 | 175 | 0.0 | 0.0 | 0.00 | 0.00 | 0.00 | 84 | |
| 20260904073752 | 61 | 175 | 0.0 | 0.0 | 0.00 | 0.00 | 0.00 | 84 | |
| 20260904073550 | 61 | 175 | 0.0 | 0.0 | 0.00 | 0.00 | 0.00 | 84 | |
| 20260904073348 | 61 | 175 | 0.0 | 0.0 | 0.00 | 0.00 | 0.00 | 84 | |
| 20260904073146 | 61 | 175 | 0.0 | 0.0 | 0.00 | 0.00 | 0.00 | 84 | |
| 20260904072944 | 61 | 175 | 0.0 | 0.0 | 0.00 | 0.00 | 0.00 | 84 | |
| 20260904072745 | 61 | 175 | 0.0 | 0.0 | 0.00 | 0.00 | 0.00 | 83 | |
| 20260904072543 | 61 | 175 | 0.0 | 0.0 | 0.00 | 0.00 | 0.00 | 83 | |
| 20260904072339 | 61 | 175 | 0.0 | 0.0 | 0.00 | 0.00 | 0.00 | 83 | |
| 20260904072137 | 61 | 175 | 0.0 | 0.0 | 0.00 | 0.00 | 0.00 | 83 | |
| 20260904071935 | 61 | 175 | 0.0 | 0.0 | 0.00 | 0.00 | 0.00 | 83 | |
| 20260904071533 | 62 | 175 | 0.0 | 0.0 | 0.00 | 0.00 | 0.00 | 83 | |
| 20260904071329 | 62 | 175 | 0.0 | 0.0 | 0.00 | 0.00 | 0.00 | 84 | |
| 20260904071127 | 62 | 175 | 0.0 | 0.0 | 0.00 | 0.00 | 0.00 | 84 | |
| 20260904070925 | 62 | 175 | 0.0 | 0.0 | 0.00 | 0.00 | 0.00 | 84 | |
| 20260904070724 | 62 | 175 | 0.0 | 0.0 | 0.00 | 0.00 | 0.00 | 84 | |
| 20260904070522 | 62 | 175 | 0.0 | 0.0 | 0.00 | 0.00 | 0.00 | 83 | |
| 20260904070320 | 62 | 175 | 0.0 | 0.0 | 0.00 | 0.00 | 0.00 | 83 | |
| 20260904070118 | 62 | 175 | 0.0 | 0.0 | 0.00 | 0.00 | 0.00 | 83 | |
| 20260904065916 | 62 | 175 | 0.0 | 0.0 | 0.00 | 0.00 | 0.00 | 83 | |
| 20260904065714 | 62 | 175 | 0.0 | 0.0 | 0.00 | 0.00 | 0.00 | 83 | |
| 20260904065512 | 62 | 175 | 0.0 | 0.0 | 0.00 | 0.00 | 0.00 | 84 | |
| 20260904065310 | 62 | 175 | 0.0 | 0.0 | 0.00 | 0.00 | 0.00 | 83 | |
| 20260904065108 | 62 | 175 | 0.0 | 0.0 | 0.00 | 0.00 | 0.00 | 83 | |
| 20260904064906 | 62 | 175 | 0.0 | 0.0 | 0.00 | 0.00 | 0.00 | 83 | |
| 20260904064301 | 62 | 175 | 0.0 | 0.0 | 0.00 | 0.00 | 0.00 | 83 | |
| 20260904064059 | 62 | 175 | 0.0 | 0.0 | 0.00 | 0.00 | 0.00 | 82 | |
| 20260904063857 | 62 | 175 | 0.0 | 0.0 | 0.00 | 0.00 | 0.00 | 82 | |
| 20260904063655 | 62 | 175 | 0.0 | 0.0 | 0.00 | 0.00 | 0.00 | 82 | |
| 20260904063453 | 62 | 175 | 0.0 | 0.0 | 0.00 | 0.00 | 0.00 | 82 | |
| 20260904063251 | 62 | 175 | 0.0 | 0.0 | 0.00 | 0.00 | 0.00 | 82 | |
| 20260904063049 | 62 | 175 | 0.0 | 0.0 | 0.00 | 0.00 | 0.00 | 81 | |
| 20260904062847 | 62 | 175 | 0.0 | 0.0 | 0.00 | 0.00 | 0.00 | 81 | |
| 20260904062647 | 62 | 175 | 0.0 | 0.0 | 0.00 | 0.00 | 0.00 | 81 | |
| 20260904062443 | 63 | 175 | 0.0 | 0.0 | 0.00 | 0.00 | 0.00 | 81 | |
| 20260904062242 | 63 | 175 | 0.0 | 0.0 | 0.00 | 0.00 | 0.00 | 81 | |
| 20260904062040 | 63 | 175 | 0.0 | 0.0 | 0.00 | 0.00 | 0.00 | 81 | |
| 20260904061838 | 63 | 175 | 0.0 | 0.0 | 0.00 | 0.00 | 0.00 | 81 | |
| 20260904061636 | 63 | 175 | 0.0 | 0.0 | 0.00 | 0.00 | 0.00 | 81 | |
| 20260904061434 | 63 | 175 | 0.0 | 0.0 | 0.00 | 0.00 | 0.00 | 81 | |
| 20260904061232 | 63 | 175 | 0.0 | 0.0 | 0.00 | 0.00 | 0.00 | 81 | |
| 20260904061030 | 63 | 175 | 0.0 | 0.0 | 0.00 | 0.00 | 0.00 | 81 | |
| 20260904060828 | 63 | 175 | 0.0 | 0.0 | 0.00 | 0.00 | 0.00 | 81 | |
| 20260904060626 | 63 | 175 | 0.0 | 0.0 | 0.00 | 0.00 | 0.00 | 81 | |
| 20260904060424 | 63 | 175 | 0.0 | 0.0 | 0.00 | 0.00 | 0.00 | 81 | |
| 20260904060223 | 63 | 175 | 0.0 | 0.0 | 0.00 | 0.00 | 0.00 | 81 | |
| 20260904060021 | 63 | 175 | 0.0 | 0.0 | 0.00 | 0.00 | 0.00 | 81 | |
| 20260904055819 | 63 | 175 | 0.0 | 0.0 | 0.00 | 0.00 | 0.00 | 81 | |
| 20260904055617 | 63 | 175 | 0.0 | 0.0 | 0.00 | 0.00 | 0.00 | 81 | |
| 20260904055415 | 63 | 175 | 0.0 | 0.0 | 0.00 | 0.00 | 0.00 | 81 | |
| 20260904055213 | 64 | 175 | 0.0 | 0.0 | 0.00 | 0.00 | 0.00 | 81 | |
| 20260904055011 | 63 | 175 | 0.0 | 0.0 | 0.00 | 0.00 | 0.00 | 81 | |
| 20260904054809 | 63 | 175 | 0.0 | 0.0 | 0.00 | 0.00 | 0.00 | 81 | |
| 20260904054607 | 64 | 175 | 0.0 | 0.0 | 0.00 | 0.00 | 0.00 | 81 | |
| 20260904054405 | 63 | 175 | 0.0 | 0.0 | 0.00 | 0.00 | 0.00 | 80 | |
| 20260904054203 | 63 | 175 | 0.0 | 0.0 | 0.00 | 0.00 | 0.00 | 80 | |
| 20260904054002 | 63 | 175 | 0.0 | 0.0 | 0.00 | 0.00 | 0.00 | 80 | |
| 20260904053800 | 63 | 175 | 0.0 | 0.0 | 0.00 | 0.00 | 0.00 | 80 | |
| 20260904053558 | 64 | 175 | 0.0 | 0.0 | 0.00 | 0.00 | 0.00 | 80 | |
| 20260904053359 | 64 | 175 | 0.0 | 0.0 | 0.00 | 0.00 | 0.00 | 80 | |
| 20260904053154 | 64 | 175 | 0.0 | 0.0 | 0.00 | 0.00 | 0.00 | 80 | |
| 20260904052952 | 64 | 175 | 0.0 | 0.0 | 0.00 | 0.00 | 0.00 | 80 | |
| 20260904052750 | 64 | 175 | 0.0 | 0.0 | 0.00 | 0.00 | 0.00 | 80 | |
| 20260904052548 | 64 | 175 | 0.0 | 0.0 | 0.00 | 0.00 | 0.00 | 80 | |
| 20260904052346 | 64 | 175 | 0.0 | 0.0 | 0.00 | 0.00 | 0.00 | 80 | |
| 20260904052144 | 64 | 175 | 0.0 | 0.0 | 0.00 | 0.00 | 0.00 | 80 | |
| 20260904051942 | 64 | 175 | 0.0 | 0.0 | 0.00 | 0.00 | 0.00 | 80 | |
| 20260904051539 | 64 | 175 | 0.0 | 0.0 | 0.00 | 0.00 | 0.00 | 80 | |
| 20260904051337 | 64 | 175 | 0.0 | 0.0 | 0.00 | 0.00 | 0.00 | 80 | |
| 20260904051135 | 64 | 175 | 0.0 | 0.0 | 0.00 | 0.00 | 0.00 | 79 | |
| 20260904050933 | 64 | 175 | 0.0 | 0.0 | 0.00 | 0.00 | 0.00 | 79 | |
| 20260904050731 | 64 | 175 | 0.0 | 0.0 | 0.00 | 0.00 | 0.00 | 79 | |
| 20260904050529 | 64 | 175 | 0.0 | 0.0 | 0.00 | 0.00 | 0.00 | 79 | |
| 20260904050327 | 64 | 175 | 0.0 | 0.0 | 0.00 | 0.00 | 0.00 | 79 | |
| 20260904050125 | 64 | 175 | 0.0 | 0.0 | 0.00 | 0.00 | 0.00 | 79 | |
| 20260904045923 | 64 | 175 | 0.0 | 0.0 | 0.00 | 0.00 | 0.00 | 79 | |
| 20260904045722 | 65 | 175 | 0.0 | 0.0 | 0.00 | 0.00 | 0.00 | 79 | |
| 20260904045521 | 65 | 175 | 0.0 | 0.0 | 0.00 | 0.00 | 0.00 | 78 | |
| 20260904045320 | 65 | 175 | 0.0 | 0.0 | 0.00 | 0.00 | 0.00 | 78 | |
| 20260904045118 | 65 | 175 | 0.0 | 0.0 | 0.00 | 0.00 | 0.00 | 78 | |
| 20260904044916 | 65 | 175 | 0.0 | 0.0 | 0.00 | 0.00 | 0.00 | 78 | |
| 20260904044712 | 65 | 175 | 0.0 | 0.0 | 0.00 | 0.00 | 0.00 | 78 | |
| 20260904044512 | 65 | 175 | 0.0 | 0.0 | 0.00 | 0.00 | 0.00 | 78 | |
| 20260904044308 | 65 | 175 | 0.0 | 0.0 | 0.00 | 0.00 | 0.00 | 77 | |
| 20260904043906 | 65 | 175 | 0.0 | 0.0 | 0.00 | 0.00 | 0.00 | 77 | |
| 20260904043703 | 65 | 175 | 0.0 | 0.0 | 0.00 | 0.00 | 0.00 | 77 | |
| 20260904043502 | 65 | 175 | 0.0 | 0.0 | 0.00 | 0.00 | 0.00 | 76 | |
| 20260904043259 | 65 | 175 | 0.0 | 0.0 | 0.00 | 0.00 | 0.00 | 76 | |
| 20260904042855 | 66 | 175 | 0.0 | 0.0 | 0.00 | 0.00 | 0.00 | 75 | |
| 20260904042653 | 66 | 175 | 0.0 | 0.0 | 0.00 | 0.00 | 0.00 | 75 | |
| 20260904042451 | 66 | 175 | 0.0 | 0.0 | 0.00 | 0.00 | 0.00 | 75 | |
| 20260904042249 | 66 | 175 | 0.0 | 0.0 | 0.00 | 0.00 | 0.00 | 75 | |
| 20260904042047 | 66 | 175 | 0.0 | 0.0 | 0.00 | 0.00 | 0.00 | 76 | |
| 20260904041643 | 66 | 175 | 0.0 | 0.0 | 0.00 | 0.00 | 0.00 | 76 | |
| 20260904041441 | 66 | 175 | 0.0 | 0.0 | 0.00 | 0.00 | 0.00 | 76 | |
| 20260904041240 | 66 | 175 | 0.0 | 0.0 | 0.00 | 0.00 | 0.00 | 76 | |
| 20260904041038 | 66 | 175 | 0.0 | 0.0 | 0.00 | 0.00 | 0.00 | 76 | |
| 20260904040836 | 66 | 175 | 0.0 | 0.0 | 0.00 | 0.00 | 0.00 | 76 | |
| 20260904040636 | 66 | 175 | 0.0 | 0.0 | 0.00 | 0.00 | 0.00 | 75 | |
| 20260904040432 | 66 | 175 | 0.0 | 0.0 | 0.00 | 0.00 | 0.00 | 75 | |
| 20260904040230 | 66 | 175 | 0.0 | 0.0 | 0.00 | 0.00 | 0.00 | 76 | |
| 20260904040028 | 66 | 175 | 0.0 | 0.0 | 0.00 | 0.00 | 0.00 | 75 | |
| 20260904035826 | 66 | 175 | 0.0 | 0.0 | 0.00 | 0.00 | 0.00 | 75 | |
| 20260904035624 | 66 | 175 | 0.0 | 0.0 | 0.00 | 0.00 | 0.00 | 75 | |
| 20260904035422 | 66 | 175 | 0.0 | 0.0 | 0.00 | 0.00 | 0.00 | 75 | |
| 20260904035221 | 66 | 175 | 0.0 | 0.0 | 0.00 | 0.00 | 0.00 | 75 | |
| 20260904035019 | 66 | 175 | 0.0 | 0.0 | 0.00 | 0.00 | 0.00 | 75 | |
| 20260904034615 | 66 | 175 | 0.0 | 0.0 | 0.00 | 0.00 | 0.00 | 74 | |
| 20260904034413 | 66 | 175 | 0.0 | 0.0 | 0.00 | 0.00 | 0.00 | 74 | |
| 20260904033807 | 67 | 175 | 0.0 | 0.0 | 0.00 | 0.00 | 0.00 | 73 | |
| 20260904033605 | 67 | 175 | 0.0 | 0.0 | 0.00 | 0.00 | 0.00 | 73 | |
| 20260904033403 | 67 | 175 | 0.0 | 0.0 | 0.00 | 0.00 | 0.00 | 73 | |
| 20260904033000 | 67 | 175 | 0.0 | 0.0 | 0.00 | 0.00 | 0.00 | 73 | |
| 20260904032758 | 67 | 175 | 0.0 | 0.0 | 0.00 | 0.00 | 0.00 | 72 | |
| 20260904032354 | 67 | 175 | 0.0 | 0.9 | 0.00 | 0.00 | 0.00 | 72 | |
| 20260904032152 | 67 | 274 | 0.0 | 0.0 | 0.00 | 0.00 | 0.00 | 72 | |
| 20260904031950 | 67 | 274 | 0.0 | 0.0 | 0.00 | 0.00 | 0.00 | 71 | |
| 20260904031748 | 68 | 274 | 0.0 | 0.0 | 0.00 | 0.00 | 0.00 | 71 | |
| 20260904031546 | 68 | 274 | 0.0 | 0.0 | 0.00 | 0.00 | 0.00 | 71 | |
| 20260904031344 | 68 | 274 | 0.0 | 0.0 | 0.00 | 0.00 | 0.00 | 71 | |
| 20260904031142 | 68 | 274 | 0.0 | 0.0 | 0.00 | 0.00 | 0.00 | 71 | |
| 20260904030941 | 68 | 274 | 0.0 | 0.0 | 0.00 | 0.00 | 0.00 | 71 | |
| 20260904030739 | 68 | 274 | 0.0 | 2.6 | 0.00 | 0.00 | 0.00 | 71 | |
| 20260904030537 | 68 | 274 | 0.0 | 2.6 | 0.00 | 0.00 | 0.00 | 71 | |
| 20260904030335 | 68 | 274 | 0.0 | 2.6 | 0.00 | 0.00 | 0.00 | 71 | |
| 20260904030133 | 68 | 274 | 0.0 | 4.3 | 0.00 | 0.00 | 0.00 | 70 | |
| 20260904025931 | 68 | 285 | 0.9 | 4.3 | 0.00 | 0.00 | 0.00 | 70 | |
| 20260904025729 | 68 | 278 | 0.0 | 5.2 | 0.00 | 0.00 | 0.00 | 71 | |
| 20260904025527 | 68 | 285 | 2.6 | 5.2 | 0.00 | 0.00 | 0.00 | 71 | |
| 20260904025325 | 68 | 282 | 0.9 | 5.2 | 0.00 | 0.00 | 0.00 | 70 | |
| 20260904025123 | 68 | 277 | 1.7 | 6.1 | 0.00 | 0.00 | 0.00 | 70 | |
| 20260904024922 | 68 | 286 | 3.5 | 6.1 | 0.00 | 0.00 | 0.00 | 70 | |
| 20260904024720 | 69 | 289 | 1.7 | 3.5 | 0.00 | 0.00 | 0.00 | 69 | |
| 20260904024518 | 69 | 285 | 1.7 | 3.5 | 0.00 | 0.00 | 0.00 | 69 | |
| 20260904024316 | 69 | 285 | 4.3 | 3.5 | 0.00 | 0.00 | 0.00 | 69 | |
| 20260904024114 | 69 | 279 | 1.7 | 5.2 | 0.00 | 0.00 | 0.00 | 69 | |
| 20260904023912 | 69 | 268 | 1.7 | 5.2 | 0.00 | 0.00 | 0.00 | 68 | |
| 20260904023710 | 69 | 271 | 1.7 | 7.0 | 0.00 | 0.00 | 0.00 | 68 | |
| 20260904023508 | 69 | 257 | 3.5 | 7.0 | 0.00 | 0.00 | 0.00 | 68 | |
| 20260904023308 | 69 | 251 | 0.0 | 7.0 | 0.00 | 0.00 | 0.00 | 67 | |
| 20260904023104 | 69 | 274 | 0.0 | 5.2 | 0.00 | 0.00 | 0.00 | 68 | |
| 20260904022902 | 69 | 282 | 4.3 | 5.2 | 0.00 | 0.00 | 0.00 | 67 | |
| 20260904022700 | 69 | 288 | 1.7 | 6.1 | 0.00 | 0.00 | 0.00 | 66 | |
| 20260904022458 | 70 | 265 | 0.9 | 6.1 | 0.00 | 0.00 | 0.00 | 67 | |
| 20260904022256 | 70 | 293 | 1.7 | 6.1 | 0.00 | 0.00 | 0.00 | 66 | |
| 20260904022054 | 70 | 285 | 2.6 | 7.0 | 0.00 | 0.00 | 0.00 | 66 | |
| 20260904021852 | 70 | 272 | 4.3 | 7.0 | 0.00 | 0.00 | 0.00 | 66 | |
| 20260904021650 | 70 | 274 | 5.2 | 6.1 | 0.00 | 0.00 | 0.00 | 65 | |
| 20260904021448 | 71 | 295 | 3.5 | 6.1 | 0.00 | 0.00 | 0.00 | 64 | |
| 20260904021246 | 71 | 277 | 2.6 | 6.1 | 0.00 | 0.00 | 0.00 | 64 | |
| 20260904021045 | 71 | 289 | 0.9 | 7.0 | 0.00 | 0.00 | 0.00 | 63 | |
| 20260904020843 | 70 | 264 | 3.5 | 7.0 | 0.00 | 0.00 | 0.00 | 63 | |
| 20260904020641 | 71 | 295 | 3.5 | 7.8 | 0.00 | 0.00 | 0.00 | 63 | |
| 20260904020439 | 71 | 278 | 6.1 | 7.8 | 0.00 | 0.00 | 0.00 | 63 | |
| 20260904020237 | 71 | 278 | 6.1 | 8.7 | 0.00 | 0.00 | 0.00 | 63 | |
| 20260904020036 | 71 | 267 | 7.0 | 8.7 | 0.00 | 0.00 | 0.00 | 62 | |
| 20260904015833 | 71 | 270 | 7.0 | 8.7 | 0.00 | 0.00 | 0.00 | 62 | |
| 20260904015632 | 72 | 261 | 7.0 | 7.0 | 0.00 | 0.00 | 0.00 | 61 | |
| 20260904015429 | 72 | 278 | 5.2 | 7.0 | 0.00 | 0.00 | 0.00 | 60 | |
| 20260904015227 | 72 | 265 | 2.6 | 8.7 | 0.00 | 0.00 | 0.00 | 60 | |
| 20260904015027 | 72 | 268 | 5.2 | 8.7 | 0.00 | 0.00 | 0.00 | 60 | |
| 20260904014825 | 72 | 272 | 3.5 | 8.7 | 0.00 | 0.00 | 0.00 | 60 | |
| 20260904014623 | 72 | 278 | 4.3 | 12.2 | 0.00 | 0.00 | 0.00 | 60 | |
| 20260904014419 | 72 | 279 | 7.0 | 12.2 | 0.00 | 0.00 | 0.00 | 60 | |
| 20260904014219 | 72 | 272 | 7.0 | 11.3 | 0.00 | 0.00 | 0.00 | 59 | |
| 20260904014015 | 72 | 258 | 9.6 | 11.3 | 0.00 | 0.00 | 0.00 | 59 | |
| 20260904013815 | 72 | 265 | 7.8 | 11.3 | 0.00 | 0.00 | 0.00 | 59 | |
| 20260904013613 | 73 | 270 | 5.2 | 8.7 | 0.00 | 0.00 | 0.00 | 59 | |
| 20260904013409 | 73 | 254 | 7.8 | 8.7 | 0.00 | 0.00 | 0.00 | 58 | |
| 20260904013209 | 73 | 260 | 8.7 | 10.4 | 0.00 | 0.00 | 0.00 | 58 | |
| 20260904013007 | 73 | 271 | 7.8 | 10.4 | 0.00 | 0.00 | 0.00 | 58 | |
| 20260904012803 | 73 | 253 | 5.2 | 10.4 | 0.00 | 0.00 | 0.00 | 58 | |
| 20260904012601 | 73 | 258 | 10.4 | 11.3 | 0.00 | 0.00 | 0.00 | 57 | |
| 20260904012401 | 73 | 268 | 6.1 | 11.3 | 0.00 | 0.00 | 0.00 | 58 | |
| 20260904012159 | 73 | 270 | 9.6 | 13.0 | 0.00 | 0.00 | 0.00 | 58 | |
| 20260904011956 | 73 | 267 | 7.8 | 13.0 | 0.00 | 0.00 | 0.00 | 58 | |
| 20260904011755 | 73 | 264 | 4.3 | 13.0 | 0.00 | 0.00 | 0.00 | 58 | |
| 20260904011552 | 73 | 268 | 8.7 | 12.2 | 0.00 | 0.00 | 0.00 | 58 | |
| 20260904011350 | 73 | 296 | 4.3 | 12.2 | 0.00 | 0.00 | 0.00 | 58 |